Tracking 35237 objects as of 5-Sep-2026
HD Live streaming from Space Station
objects crossing your sky now

VANGUARD 3


10-day predictions
VANGUARD 3 is classified as:


NORAD ID: 20
Int'l Code: 1959-007A
Launch date: September 18, 1959
Source: United States (US)
Launch site: AIR FORCE EASTERN TEST RANGE (AFETR)
Your satellite tracking list
Your tracking list is empty




NASA's NSSDC Master Catalog

Two Line Element Set (TLE):
1    20U 59007A   26247.59761491  .00000385  00000-0  15815-3 0  9995
2    20  33.3443 340.9814 1636620 119.3504 258.0419 11.62018044493855
Source of the keplerian elements: AFSPC